1487768400.32,60699,11.13,72510.5,-1.07,-3.71,-3.51,0,*54
1487768401.52,60700,11.06,72506.0,-1.07,-4.13,-4.09,0,*5C
1487768402.72,60701,11.13,72500.5,-1.07,-4.09,-3.75,0,*5A
1487768403.93,60702,11.13,72508.8,-1.07,-3.95,-3.87,0,*56
1487768405.13,60703,11.13,72510.8,-1.07,-4.05,-3.83,0,*5D
1487768406.36,60704,11.13,72526.0,-1.07,-4.01,-3.87,0,*5A
1487768407.55,60705,11.13,72524.3,-1.11,-4.09,-3.83,0,*50
1487768408.78,60706,11.13,72480.5,-1.11,-4.01,-3.75,0,*52
1487768410.01,60707,11.06,72486.0,-1.11,-4.01,-3.75,0,*53
1487768411.21,60708,11.13,72496.8,-1.11,-4.53,-4.41,0,*5B
1487768412.48,60709,11.13,72498.8,-1.13,-3.67,-3.63,0,*5F
1487768413.71,60710,11.13,72514.5,-1.13,-3.87,-3.79,0,*52
1487768414.93,60711,11.13,72518.3,-1.13,-3.35,-3.27,0,*51
1487768416.16,60712,11.13,72516.3,-1.13,-3.87,-3.75,0,*5C
1487768417.42,60713,11.13,72518.3,-1.13,-4.01,-3.87,0,*59
1487768418.64,60714,11.13,72520.3,-1.13,-4.05,-3.91,0,*5D
1487768419.87,60715,11.13,72508.8,-1.13,-4.17,-4.05,0,*55
1487768421.09,60716,11.13,72512.0,-1.13,-4.13,-4.05,0,*52
1487768422.34,60717,11.13,72502.0,-1.13,-4.13,-4.01,0,*57
1487768423.57,60718,11.13,72492.3,-1.13,-3.79,-3.75,0,*57
1487768424.78,60719,11.13,72496.8,-1.15,-4.25,-4.13,0,*59
1487768426.01,60720,11.13,72494.8,-1.15,-4.01,-3.87,0,*5F
1487768427.26,60721,11.13,72500.8,-1.15,-3.67,-3.55,0,*56
1487768428.5,60722,11.13,72514.3,-1.15,-3.51,-3.47,0,*53
1487768429.7,60723,11.13,72500.5,-1.15,-4.13,-4.17,0,*51
1487768430.9,60724,11.13,72500.3,-1.15,-4.05,-3.91,0,*58
1487768432.09,60725,11.13,72502.3,-1.17,-4.09,-4.05,0,*5D
1487768433.29,60726,11.13,72504.0,-1.17,-3.95,-3.91,0,*56
1487768434.51,60727,11.13,72426.3,-1.13,-4.13,-4.05,0,*50
1487768435.7,60728,11.13,72444.3,-1.17,-4.33,-4.45,0,*5D
1487768436.9,60729,11.13,72448.3,-1.17,-4.21,-4.17,0,*58
1487768438.12,60730,11.13,72454.8,-1.19,-3.95,-3.83,0,*5C
1487768439.33,60731,11.13,72470.8,-1.19,-4.17,-4.09,0,*55
1487768440.55,60732,11.13,72456.0,-1.19,-4.17,-4.05,0,*5A
1487768441.77,60733,11.13,72468.8,-1.19,-4.09,-4.09,0,*58
1487768442.96,60734,11.13,72496.8,-1.21,-4.09,-4.09,0,*54
1487768444.16,60735,11.13,72506.5,-1.21,-4.21,-4.13,0,*54
1487768445.36,60736,11.13,72510.5,-1.21,-3.95,-3.87,0,*55
1487768446.56,60737,11.06,72504.8,-1.21,-3.87,-3.75,0,*5A
1487768447.78,60738,11.13,72506.5,-1.23,-4.29,-4.29,0,*5A
1487768449.0,60739,11.13,72506.0,-1.23,-4.05,-3.91,0,*51
1487768450.26,60740,11.13,72494.5,-1.23,-3.75,-3.59,0,*5B
1487768451.53,60741,11.13,72484.5,-1.23,-3.63,-3.59,0,*5D
1487768452.8,60742,11.13,72486.5,-1.23,-3.63,-3.51,0,*56
1487768454.07,60743,11.13,72478.5,-1.23,-3.59,-3.51,0,*5E
1487768455.26,60744,11.13,72482.8,-1.21,-3.31,-3.23,0,*50
1487768456.47,60745,11.13,72492.5,-1.21,-3.43,-3.35,0,*53
1487768457.67,60746,11.13,72496.5,-1.21,-3.31,-3.27,0,*56
1487768458.9,60747,11.13,72502.8,-1.19,-3.39,-3.27,0,*54
1487768460.12,60748,11.13,72510.0,-1.19,-3.15,-3.07,0,*57
1487768461.34,60749,11.13,72508.5,-1.19,-3.31,-3.27,0,*52
1487768462.55,60750,11.13,72512.5,-1.19,-3.19,-3.19,0,*5D
1487768463.77,60751,11.13,72516.3,-1.19,-3.19,-3.07,0,*53
1487768464.99,60752,11.13,72512.3,-1.19,-3.15,-3.07,0,*5C
1487768466.18,60753,11.13,72508.5,-1.17,-3.31,-3.27,0,*57
1487768467.43,60754,11.13,72512.3,-1.15,-3.63,-3.51,0,*54
1487768468.62,60755,11.13,72514.3,-1.17,-3.39,-3.31,0,*5E
1487768469.84,60756,11.13,72508.3,-1.17,-3.75,-3.63,0,*52
1487768471.05,60757,11.13,72496.0,-1.15,-3.79,-3.79,0,*56
1487768472.25,60758,11.13,72500.5,-1.17,-3.91,-3.83,0,*58
1487768473.47,60759,11.13,72488.3,-1.17,-3.91,-3.71,0,*54
1487768474.67,60760,11.13,72496.8,-1.17,-3.91,-3.79,0,*56
1487768475.9,60761,11.13,72494.3,-1.17,-3.55,-3.51,0,*55
1487768477.09,60762,11.13,72498.8,-1.17,-4.05,-3.95,0,*5C
1487768478.28,60763,11.13,72500.5,-1.17,-3.95,-3.83,0,*54
1487768479.47,60764,11.13,72494.8,-1.17,-4.17,-4.17,0,*54
1487768480.66,60765,11.13,72504.3,-1.17,-4.05,-3.95,0,*5B
1487768481.88,60766,11.13,72504.5,-1.17,-3.71,-3.79,0,*5E
1487768483.13,60767,11.13,72506.0,-1.19,-3.67,-3.55,0,*58
1487768484.36,60768,11.13,72498.3,-1.19,-3.83,-3.79,0,*53
1487768485.59,60769,11.13,72500.5,-1.19,-3.91,-3.91,0,*57
1487768486.8,60770,11.13,72490.5,-1.17,-3.83,-3.71,0,*5C
1487768488.07,60771,11.13,72472.5,-1.19,-3.59,-3.51,0,*56
1487768489.29,60772,11.13,72472.3,-1.19,-4.29,-4.21,0,*55
1487768490.51,60773,11.13,72462.3,-1.19,-4.49,-4.57,0,*53
1487768491.72,60774,11.13,72434.3,-1.21,-4.77,-4.99,0,*50
1487768492.91,60775,11.13,72428.8,-1.21,-4.99,-4.99,0,*51
1487768494.13,60776,11.13,72452.0,-1.23,-3.91,-3.87,0,*57
1487768495.36,60777,11.13,72470.8,-1.23,-3.91,-3.87,0,*56
1487768496.59,60778,11.13,72460.5,-1.23,-3.79,-3.79,0,*5E
1487768497.84,60779,11.13,72438.5,-1.23,-4.13,-4.01,0,*5C
1487768499.09,60780,11.13,72474.0,-1.23,-4.01,-3.91,0,*57
1487768500.28,60781,11.13,72484.0,-1.25,-4.29,-4.25,0,*52
1487768501.51,60782,11.13,72484.3,-1.23,-3.91,-3.87,0,*5C
1487768502.75,60783,11.13,72480.0,-1.25,-3.59,-3.59,0,*5C
1487768503.95,60784,11.13,72476.0,-1.25,-3.35,-3.35,0,*5B
1487768505.18,60785,11.13,72502.5,-1.23,-3.27,-3.27,0,*5C
1487768506.39,60786,11.13,72504.5,-1.23,-3.35,-3.23,0,*58
1487768507.67,60787,11.13,72492.8,-1.23,-2.75,-2.75,0,*5E
1487768508.88,60788,11.13,72488.5,-1.19,-3.19,-3.19,0,*58
1487768510.12,60789,11.13,72484.8,-1.21,-3.59,-3.55,0,*5E
1487768511.3,60790,11.13,72472.8,-1.21,-3.23,-3.19,0,*53
1487768512.52,60791,11.13,72468.5,-1.19,-3.31,-3.19,0,*5A
1487768513.72,60792,11.13,72470.8,-1.21,-3.11,-2.99,0,*59
1487768514.96,60793,11.13,72478.5,-1.19,-2.83,-2.67,0,*58
1487768516.2,60794,11.13,72488.3,-1.17,-2.75,-2.67,0,*58
1487768517.39,60795,11.13,72504.0,-1.17,-2.79,-2.79,0,*5A
1487768518.61,60796,11.13,72482.8,-1.17,-2.95,-2.75,0,*57
1487768519.83,60797,11.13,72480.8,-1.17,-2.87,-2.75,0,*55
1487768521.02,60798,11.13,72490.5,-1.15,-3.23,-3.15,0,*50
1487768522.22,60799,11.13,72500.5,-1.15,-3.27,-3.23,0,*50
1487768523.42,60800,11.13,72500.5,-1.15,-2.79,-2.79,0,*5B
1487768524.67,60801,11.13,72498.0,-1.11,-2.67,-2.59,0,*53
1487768525.94,60802,11.13,72502.5,-1.13,-2.75,-2.71,0,*5B
1487768527.13,60803,11.13,72510.8,-1.07,-3.23,-3.23,0,*5B
1487768528.33,60804,11.13,72510.5,-1.11,-3.07,-2.99,0,*5D
1487768529.58,60805,11.13,72504.3,-1.07,-3.47,-3.43,0,*59
1487768530.78,60806,11.13,72498.5,-1.11,-3.07,-2.95,0,*53
1487768532.01,60807,11.13,72508.0,-1.07,-2.83,-2.71,0,*52
1487768533.26,60808,11.13,72500.8,-1.07,-2.75,-2.71,0,*54
1487768534.49,60809,11.13,72506.0,-1.07,-2.83,-2.71,0,*5C
1487768535.71,60810,11.13,72504.0,-1.05,-2.95,-2.83,0,*5C
1487768536.99,60811,11.13,72504.8,-1.05,-2.67,-2.63,0,*5E
1487768538.21,60812,11.13,72508.5,-1.05,-3.19,-3.27,0,*54
1487768539.43,60813,11.13,72514.5,-1.05,-3.39,-3.31,0,*50
1487768540.65,60814,11.13,72510.5,-1.05,-3.15,-3.07,0,*5C
1487768541.88,60815,11.13,72516.3,-1.05,-3.27,-3.15,0,*5F
1487768543.1,60816,11.13,72524.5,-1.05,-3.31,-3.27,0,*5A
1487768544.33,60817,11.13,72528.0,-1.03,-3.43,-3.27,0,*58
1487768545.52,60818,11.13,72534.3,-1.03,-2.91,-2.91,0,*55
1487768546.71,60819,11.13,72538.3,-0.99,-3.03,-2.99,0,*64
1487768547.91,60820,11.13,72540.8,-1.03,-3.03,-2.91,0,*54
1487768549.13,60821,11.13,72540.3,-1.03,-2.79,-2.71,0,*57
1487768550.35,60822,11.13,72546.8,-1.03,-3.43,-3.31,0,*59
1487768551.58,60823,11.13,72544.8,-1.01,-3.35,-3.27,0,*5C
1487768552.83,60824,11.13,72528.3,-1.01,-3.75,-3.63,0,*5F
1487768554.06,60825,11.13,72514.8,-1.03,-3.79,-3.59,0,*59
1487768555.29,60826,11.13,72514.0,-1.03,-3.79,-3.59,0,*5A
1487768556.49,60827,11.13,72508.8,-1.03,-4.21,-4.05,0,*5F
1487768557.69,60828,11.13,72510.3,-1.03,-4.17,-4.17,0,*56
1487768558.91,60829,11.13,72504.0,-1.01,-4.05,-3.91,0,*5F
1487768560.11,60830,11.13,72492.0,-1.07,-4.49,-4.41,0,*53
1487768561.32,60831,11.13,72508.5,-1.07,-4.25,-4.21,0,*5E
1487768562.55,60832,11.13,72488.8,-1.05,-3.91,-3.79,0,*5D
1487768563.76,60833,11.13,72486.5,-1.07,-3.95,-3.95,0,*58
1487768564.99,60834,11.13,72482.5,-1.07,-4.01,-3.95,0,*55
1487768566.19,60835,11.13,72484.5,-1.07,-4.33,-4.25,0,*59
1487768567.44,60836,11.13,72490.8,-1.11,-3.71,-3.59,0,*50
1487768568.65,60837,11.13,72494.5,-1.11,-3.75,-3.75,0,*5B
1487768569.87,60838,11.13,72494.8,-1.13,-4.37,-4.29,0,*59
1487768571.07,60839,11.13,72490.5,-1.11,-4.65,-4.65,0,*55
1487768572.29,60840,11.13,72502.3,-1.13,-4.45,-4.41,0,*5D
1487768573.52,60841,11.13,72500.8,-1.15,-3.75,-3.67,0,*5D
1487768574.71,60842,11.13,72504.3,-1.15,-3.27,-3.23,0,*59
1487768575.94,60843,11.13,72500.0,-1.15,-3.47,-3.39,0,*55
1487768577.15,60844,11.13,72502.8,-1.15,-3.79,-3.75,0,*57
1487768578.4,60845,11.13,72506.0,-1.15,-3.47,-3.47,0,*5A
1487768579.6,60846,11.13,72508.0,-1.15,-3.27,-3.15,0,*58
1487768580.83,60847,11.13,72512.0,-1.15,-3.47,-3.39,0,*51
1487768582.07,60848,11.13,72528.8,-1.15,-3.55,-3.51,0,*53
1487768583.27,60849,11.13,72502.8,-1.15,-4.29,-4.45,0,*5C
1487768584.52,60850,11.13,72484.8,-1.15,-4.73,-4.73,0,*5E
1487768585.71,60851,11.13,72496.5,-1.17,-4.41,-4.49,0,*55
1487768586.89,60852,11.13,72486.5,-1.17,-4.45,-4.33,0,*5F
1487768588.09,60853,11.13,72482.8,-1.21,-4.25,-4.21,0,*5E
1487768589.28,60854,11.13,72484.5,-1.21,-4.37,-4.25,0,*5E
1487768590.5,60855,11.13,72490.0,-1.19,-4.17,-4.17,0,*57
1487768591.68,60856,11.13,72494.8,-1.21,-4.45,-4.33,0,*5E
1487768592.87,60857,11.13,72494.5,-1.21,-4.37,-4.37,0,*5E
1487768594.09,60858,11.13,72494.0,-1.19,-4.17,-4.17,0,*5A
1487768595.29,60859,11.13,72490.8,-1.21,-4.21,-4.25,0,*54
1487768596.55,60860,11.13,72474.8,-1.23,-4.69,-4.77,0,*57
1487768597.82,60861,11.13,72474.8,-1.23,-4.89,-4.93,0,*52
1487768599.01,60862,11.13,72452.3,-1.25,-4.49,-4.41,0,*54
1487768600.2,60863,11.13,72456.5,-1.25,-4.37,-4.37,0,*5D
1487768601.39,60864,11.13,72472.0,-1.25,-4.13,-4.13,0,*5A
1487768602.58,60865,11.13,72476.5,-1.25,-4.05,-4.05,0,*5B
1487768603.77,60866,11.13,72472.0,-1.25,-4.49,-4.53,0,*53
1487768604.96,60867,11.13,72470.5,-1.25,-4.17,-4.17,0,*59
1487768606.17,60868,11.13,72466.3,-1.25,-4.05,-4.01,0,*52
1487768607.44,60869,11.13,72464.0,-1.27,-3.63,-3.51,0,*54
1487768608.7,60870,11.13,72482.8,-1.27,-3.67,-3.63,0,*59
1487768609.93,60871,11.13,72474.5,-1.27,-3.95,-3.83,0,*5B
1487768611.13,60872,11.13,72482.3,-1.25,-3.91,-3.75,0,*57
1487768612.35,60873,11.13,72472.8,-1.25,-4.13,-4.01,0,*5F
1487768613.57,60874,11.13,72484.3,-1.27,-4.33,-4.33,0,*59
1487768614.79,60875,11.13,72526.3,-1.25,-3.79,-3.67,0,*55
1487768615.98,60876,11.13,72484.3,-1.25,-3.87,-3.79,0,*58
1487768617.22,60877,11.13,72516.8,-1.25,-4.93,-5.03,0,*50
1487768618.47,60878,11.13,72524.0,-1.29,-5.11,-5.23,0,*5A
1487768619.66,60879,11.13,72530.0,-1.29,-6.01,-6.13,0,*59
1487768620.91,60880,11.13,72516.5,-1.35,-5.93,-6.13,0,*5A
1487768622.13,60881,11.13,72462.5,-1.35,-5.43,-5.43,0,*50
1487768623.4,60882,11.13,72454.5,-1.39,-5.15,-5.31,0,*59
1487768624.67,60883,11.13,72452.0,-1.39,-4.81,-4.89,0,*56
1487768625.87,60884,11.13,72466.3,-1.41,-4.41,-4.41,0,*56
1487768627.07,60885,11.13,72478.5,-1.41,-4.33,-4.41,0,*52
1487768628.29,60886,11.13,72498.3,-1.39,-4.29,-4.37,0,*54
1487768629.49,60887,11.13,72496.0,-1.41,-4.29,-4.41,0,*5B
1487768630.71,60888,11.13,72524.5,-1.39,-4.29,-4.29,0,*55
1487768631.9,60889,11.13,72524.5,-1.41,-4.41,-4.45,0,*5F
1487768633.11,60890,11.13,72524.8,-1.41,-3.75,-3.91,0,*59
1487768634.32,60891,11.13,72546.5,-1.39,-4.37,-4.49,0,*54
1487768635.57,60892,11.13,72550.8,-1.39,-4.61,-4.77,0,*59
1487768636.76,60893,11.13,72546.3,-1.41,-4.53,-4.57,0,*54
1487768637.95,60894,11.13,72534.8,-1.41,-4.53,-4.45,0,*50
1487768639.17,60895,11.13,72522.8,-1.39,-4.53,-4.53,0,*59
1487768640.45,60896,11.13,72508.0,-1.39,-5.15,-5.07,0,*59
1487768641.65,60897,11.13,72502.8,-1.41,-4.09,-3.91,0,*52
1487768642.91,60898,11.13,72496.5,-1.39,-3.71,-3.47,0,*51
1487768644.13,60899,11.13,72516.3,-1.39,-3.23,-2.99,0,*55
1487768645.38,60900,11.13,72518.8,-1.39,-3.51,-3.39,0,*5A
1487768646.6,60901,11.13,72506.0,-1.31,-3.19,-3.07,0,*52
1487768647.82,60902,11.13,72506.0,-1.31,-3.11,-2.99,0,*5F
1487768649.02,60903,11.13,72512.3,-1.29,-3.07,-2.95,0,*5C
1487768650.21,60904,11.13,72512.5,-1.29,-3.19,-3.07,0,*5E
1487768651.44,60905,11.13,72518.0,-1.27,-3.07,-2.95,0,*54
1487768652.66,60906,11.13,72514.8,-1.27,-3.15,-3.03,0,*5A
1487768653.87,60907,11.13,72510.5,-1.27,-3.19,-3.15,0,*50
1487768655.13,60908,11.13,72508.8,-1.23,-4.01,-3.91,0,*59
1487768656.35,60909,11.13,72528.3,-1.23,-3.87,-3.87,0,*56
1487768657.54,60910,11.13,72490.5,-1.25,-4.29,-4.25,0,*54
1487768658.8,60911,11.13,72490.5,-1.23,-4.69,-4.77,0,*50
1487768660.06,60912,11.13,72508.5,-1.25,-5.15,-5.07,0,*59
1487768661.31,60913,11.13,72504.3,-1.25,-5.07,-5.07,0,*5B
1487768662.54,60914,11.13,72504.3,-1.25,-4.93,-4.93,0,*5C
1487768663.78,60915,11.13,72510.3,-1.25,-5.07,-4.93,0,*51
1487768664.99,60916,11.13,72506.8,-1.25,-4.69,-4.37,0,*55
1487768666.19,60917,11.13,72496.3,-1.25,-4.25,-3.87,0,*50
1487768667.38,60918,11.13,72492.3,-1.25,-4.17,-3.91,0,*59
1487768668.6,60919,11.13,72478.8,-1.25,-4.29,-4.01,0,*5B
1487768669.82,60920,11.13,72490.5,-1.23,-4.17,-3.79,0,*52
1487768671.06,60921,11.13,72484.5,-1.23,-4.41,-4.01,0,*58
1487768672.27,60922,11.13,72480.8,-1.25,-4.81,-4.41,0,*55
1487768673.45,60923,11.13,72490.8,-1.25,-4.53,-4.17,0,*58
1487768674.67,60924,11.13,72494.8,-1.25,-4.41,-4.01,0,*5B
1487768675.88,60925,11.13,72464.3,-1.25,-4.69,-4.29,0,*5A
1487768677.07,60926,11.13,72472.5,-1.25,-4.49,-4.13,0,*52
1487768678.26,60927,11.13,72496.3,-1.25,-4.29,-3.91,0,*58
1487768679.48,60928,11.13,72506.3,-1.25,-3.91,-3.67,0,*5A
1487768680.7,60929,11.13,72502.0,-1.25,-3.91,-3.59,0,*56
1487768681.93,60930,11.13,72500.0,-1.25,-3.91,-3.59,0,*5E
1487768683.15,60931,11.13,72492.3,-1.23,-4.25,-4.05,0,*5F
1487768684.34,60932,11.13,72488.5,-1.25,-4.17,-3.87,0,*56
1487768685.53,60933,11.13,72518.3,-1.25,-4.13,-3.91,0,*54
1487768686.74,60934,11.13,72494.8,-1.25,-4.69,-4.53,0,*57
1487768687.93,60935,11.13,72500.0,-1.25,-4.49,-4.25,0,*55
1487768689.12,60936,11.13,72498.5,-1.25,-4.29,-4.13,0,*55
1487768690.37,60937,11.13,72484.0,-1.25,-3.63,-3.59,0,*54
1487768691.61,60938,11.13,72510.3,-1.25,-3.67,-3.59,0,*5F
1487768692.8,60939,11.13,72506.8,-1.25,-3.91,-3.87,0,*54
1487768694.0,60940,11.13,72494.3,-1.25,-3.87,-3.75,0,*50
1487768695.19,60941,11.13,72486.5,-1.25,-4.13,-4.13,0,*5C
1487768696.39,60942,11.13,72488.0,-1.25,-4.29,-4.25,0,*53
1487768697.58,60943,11.13,72496.0,-1.25,-4.17,-4.13,0,*5A
1487768698.8,60944,11.13,72482.5,-1.25,-4.01,-3.87,0,*50
1487768700.01,60945,11.13,72476.3,-1.25,-4.13,-4.01,0,*5B
1487768701.21,60946,11.13,72500.0,-1.25,-4.17,-4.05,0,*58
1487768702.42,60947,11.13,72498.5,-1.27,-4.17,-3.95,0,*55
1487768703.69,60948,11.13,72504.3,-1.27,-3.55,-3.51,0,*53
1487768704.91,60949,11.13,72512.8,-1.27,-3.15,-3.07,0,*55
1487768706.1,60950,11.13,72522.3,-1.25,-3.39,-3.23,0,*57
1487768707.29,60951,11.13,72512.8,-1.25,-3.27,-3.15,0,*5C
1487768708.56,60952,11.13,72512.8,-1.23,-3.51,-3.59,0,*50
1487768709.83,60953,11.13,72524.8,-1.23,-3.59,-3.59,0,*59
1487768711.05,60954,11.13,72528.5,-1.23,-3.23,-3.03,0,*5C
1487768712.32,60955,11.13,72522.8,-1.23,-3.59,-3.59,0,*5F
1487768713.57,60956,11.13,72520.5,-1.23,-4.01,-3.87,0,*55
1487768714.8,60957,11.13,72508.3,-1.23,-4.29,-4.29,0,*5D
1487768715.99,60958,11.13,72506.0,-1.25,-4.29,-4.25,0,*58
1487768717.21,60959,11.13,72496.5,-1.23,-4.25,-4.17,0,*52
1487768718.41,60960,11.13,72504.8,-1.25,-4.57,-4.65,0,*5E
1487768719.6,60961,11.13,72492.0,-1.25,-4.25,-4.13,0,*5B
1487768720.82,60962,11.13,72490.0,-1.25,-4.05,-4.01,0,*59
1487768722.04,60963,11.13,72492.8,-1.27,-4.61,-4.61,0,*5E
1487768723.26,60964,11.13,72486.3,-1.27,-4.41,-4.29,0,*57
1487768724.45,60965,11.13,72474.0,-1.29,-4.17,-4.17,0,*56
1487768725.73,60966,11.13,72478.3,-1.27,-5.07,-5.07,0,*5B
1487768726.93,60967,11.13,72482.0,-1.29,-4.41,-4.29,0,*5A
1487768728.17,60968,11.13,72474.8,-1.29,-4.69,-4.69,0,*5B
1487768729.36,60969,11.13,72476.5,-1.29,-4.09,-4.05,0,*56
1487768730.56,60970,11.13,72478.8,-1.29,-3.95,-3.83,0,*55
1487768731.75,60971,11.13,72480.3,-1.29,-4.17,-4.09,0,*5C
1487768732.98,60972,11.13,72472.8,-1.31,-3.95,-3.83,0,*5E
1487768734.2,60973,11.13,72486.0,-1.31,-4.33,-4.33,0,*58
1487768735.43,60974,11.13,72492.5,-1.31,-4.21,-4.21,0,*5F
1487768736.66,60975,11.13,72494.5,-1.35,-4.25,-4.21,0,*5E
1487768737.87,60976,11.13,72484.5,-1.31,-4.49,-4.37,0,*54
1487768739.14,60977,11.13,72490.8,-1.35,-4.77,-4.73,0,*5C
1487768740.4,60978,11.13,72490.3,-1.39,-4.69,-4.69,0,*5B
1487768741.62,60979,11.13,72492.8,-1.39,-4.49,-4.49,0,*5A
1487768742.84,60980,11.13,72492.3,-1.39,-4.53,-4.49,0,*57
1487768744.04,60981,11.13,72490.8,-1.41,-4.33,-4.29,0,*59
1487768745.22,60982,11.13,72476.3,-1.41,-4.45,-4.41,0,*55
1487768746.45,60983,11.13,72478.0,-1.41,-4.65,-4.69,0,*5C
1487768747.67,60984,11.13,72468.8,-1.43,-4.09,-4.05,0,*59
1487768748.87,60985,11.13,72488.0,-1.41,-4.21,-4.17,0,*53
1487768750.06,60986,11.13,72470.5,-1.41,-4.29,-4.09,0,*57
1487768751.28,60987,11.13,72484.3,-1.39,-4.49,-4.37,0,*52
1487768752.5,60988,11.13,72474.3,-1.39,-4.53,-4.53,0,*54
1487768753.73,60989,11.13,72486.3,-1.43,-4.33,-4.29,0,*53
1487768754.93,60990,11.13,72490.8,-1.45,-4.61,-4.49,0,*5C
1487768756.16,60991,11.13,72492.0,-1.43,-4.21,-4.09,0,*5B
1487768757.43,60992,11.13,72484.3,-1.43,-4.85,-4.73,0,*5B
1487768758.62,60993,11.13,72462.8,-1.45,-4.99,-4.99,0,*55
1487768759.85,60994,11.13,72470.8,-1.45,-5.35,-5.27,0,*51
1487768761.06,60995,11.13,72466.5,-1.45,-5.39,-5.35,0,*5F
1487768762.32,60996,11.13,72462.0,-1.49,-4.89,-4.81,0,*54
1487768763.59,60997,11.13,72488.5,-1.49,-4.93,-4.89,0,*56
1487768764.81,60998,11.13,72494.3,-1.49,-4.53,-4.41,0,*51
1487768766.05,60999,11.13,72494.0,-1.49,-4.13,-4.01,0,*50
1487768767.27,61000,11.13,72490.5,-1.49,-4.05,-4.05,0,*5B
1487768768.51,61001,11.13,72490.5,-1.49,-4.13,-4.01,0,*59
1487768769.74,61002,11.13,72492.0,-1.49,-3.83,-3.75,0,*50
1487768770.99,61003,11.13,72494.8,-1.47,-3.75,-3.71,0,*52
1487768772.26,61004,11.13,72500.3,-1.49,-3.71,-3.59,0,*55
1487768773.5,61005,11.13,72516.0,-1.47,-3.83,-3.75,0,*59
1487768774.72,61006,11.13,72518.0,-1.47,-4.49,-4.41,0,*5B
1487768775.93,61007,11.13,72516.3,-1.49,-4.53,-4.41,0,*5F
1487768777.15,61008,11.13,72524.3,-1.49,-3.87,-3.87,0,*53
1487768778.4,61009,11.13,72532.3,-1.49,-4.01,-3.91,0,*5C
1487768779.62,61010,11.13,72526.0,-1.49,-4.13,-4.05,0,*5D
1487768780.84,61011,11.13,72488.0,-1.49,-4.49,-4.37,0,*52
1487768782.06,61012,11.13,72488.8,-1.49,-4.49,-4.41,0,*50
1487768783.25,61013,11.13,72492.3,-1.51,-4.29,-4.17,0,*5D
1487768784.44,61014,11.13,72500.0,-1.51,-4.45,-4.33,0,*56
1487768785.63,61015,11.13,72500.0,-1.51,-4.21,-4.17,0,*53
1487768786.87,61016,11.13,72506.0,-1.51,-4.69,-4.69,0,*55
1487768788.16,61017,11.13,72526.5,-1.53,-5.23,-5.31,0,*55
1487768789.38,61018,11.13,72514.5,-1.53,-4.57,-4.53,0,*5D
1487768790.61,61019,11.13,72520.0,-1.53,-4.65,-4.57,0,*59
1487768791.86,61020,11.13,72506.5,-1.55,-4.89,-4.89,0,*54
1487768793.06,61021,11.13,72510.5,-1.59,-4.37,-4.33,0,*5D
1487768794.25,61022,11.13,72516.3,-1.55,-4.45,-4.33,0,*57
1487768795.5,61023,11.13,72522.8,-1.59,-4.81,-4.73,0,*56
1487768796.72,61024,11.13,72496.0,-1.55,-4.61,-4.69,0,*58
1487768797.98,61025,11.13,72510.3,-1.59,-5.15,-5.15,0,*5D
1487768799.2,61026,11.13,72508.8,-1.59,-4.85,-4.99,0,*53
1487768800.47,61027,11.13,72496.3,-1.61,-4.85,-4.77,0,*59
1487768801.69,61028,11.13,72494.8,-1.61,-4.65,-4.61,0,*5F
1487768802.94,61029,11.13,72504.3,-1.63,-4.93,-5.03,0,*50
1487768804.2,61030,11.13,72476.5,-1.63,-5.03,-5.03,0,*50
1487768805.48,61031,11.13,72492.3,-1.65,-5.23,-5.31,0,*54
1487768806.76,61032,11.13,72472.8,-1.65,-5.19,-5.19,0,*54
1487768807.98,61033,11.13,72474.5,-1.67,-4.99,-4.85,0,*5A
1487768809.23,61034,11.13,72504.5,-1.67,-4.73,-4.69,0,*5B
1487768810.43,61035,11.13,72508.3,-1.67,-4.61,-4.61,0,*51
1487768811.68,61036,11.13,72512.5,-1.67,-4.81,-4.81,0,*52
1487768812.92,61037,11.13,72516.3,-1.67,-4.81,-4.73,0,*5E
1487768814.19,61038,11.13,72514.0,-1.69,-4.85,-4.85,0,*52
1487768815.41,61039,11.13,72510.0,-1.69,-4.49,-4.53,0,*58
1487768816.68,61040,11.13,72498.8,-1.69,-4.85,-4.81,0,*59
1487768817.93,61041,11.13,72482.3,-1.69,-5.27,-5.39,0,*53
1487768819.19,61042,11.13,72490.3,-1.71,-5.03,-5.03,0,*56
1487768820.46,61043,11.13,72474.0,-1.73,-5.27,-5.31,0,*52
1487768821.69,61044,11.13,72482.0,-1.71,-4.99,-5.03,0,*52
1487768822.91,61045,11.13,72444.8,-1.75,-4.69,-4.57,0,*58
1487768824.19,61046,11.13,72454.8,-1.73,-5.19,-5.19,0,*50
1487768825.46,61047,11.13,72474.0,-1.73,-4.89,-4.85,0,*5D
1487768826.7,61048,11.13,72502.8,-1.75,-4.93,-4.89,0,*53
1487768827.95,61049,11.13,72504.3,-1.75,-4.77,-4.69,0,*56
1487768829.22,61050,11.13,72502.3,-1.77,-4.93,-4.81,0,*50
1487768830.48,61051,11.13,72486.8,-1.77,-4.93,-4.93,0,*52
1487768831.76,61052,11.13,72478.3,-1.77,-4.93,-5.07,0,*5D
1487768832.97,61053,11.13,72464.3,-1.81,-5.11,-4.99,0,*58
1487768834.22,61054,11.13,72500.0,-1.81,-5.11,-5.03,0,*5D
1487768835.47,61055,11.13,72498.5,-1.81,-4.89,-4.89,0,*5F
1487768836.67,61056,11.13,72494.8,-1.81,-4.21,-4.21,0,*5C
1487768837.87,61057,11.13,72502.3,-1.81,-3.95,-3.83,0,*5A
1487768839.07,61058,11.13,72502.3,-1.81,-3.75,-3.75,0,*52
1487768840.31,61059,11.13,72502.8,-1.81,-4.77,-4.73,0,*57
1487768841.56,61060,11.13,72510.3,-1.81,-5.03,-5.03,0,*59
1487768842.8,61061,11.13,72502.0,-1.81,-4.85,-4.77,0,*55
1487768844.01,61062,11.13,72506.8,-1.81,-4.21,-4.21,0,*5B
1487768845.24,61063,11.13,72508.5,-1.77,-3.91,-3.79,0,*55
1487768846.44,61064,11.13,72510.8,-1.81,-3.95,-3.87,0,*5E
1487768847.71,61065,11.13,72512.3,-1.77,-3.67,-3.55,0,*54
1487768848.96,61066,11.13,72516.8,-1.77,-3.79,-3.67,0,*59
1487768850.15,61067,11.13,72516.3,-1.81,-3.95,-3.87,0,*5D
1487768851.42,61068,11.13,72520.8,-1.77,-4.01,-3.91,0,*56
1487768852.65,61069,11.13,72520.3,-1.81,-3.71,-3.71,0,*50
1487768853.9,61070,11.13,72528.5,-1.75,-3.63,-3.51,0,*52
1487768855.14,61071,11.13,72532.3,-1.75,-3.63,-3.67,0,*56
1487768856.34,61072,11.13,72532.3,-1.75,-4.05,-3.91,0,*5B
1487768857.57,61073,11.13,72538.8,-1.75,-4.05,-4.01,0,*54
1487768858.81,61074,11.13,72528.8,-1.73,-4.09,-4.01,0,*59
1487768860.02,61075,11.13,72534.0,-1.75,-4.29,-4.29,0,*56
1487768861.22,61076,11.13,72544.8,-1.75,-4.57,-4.57,0,*55
1487768862.45,61077,11.13,72540.8,-1.73,-4.61,-4.61,0,*52
1487768863.7,61078,11.13,72528.3,-1.75,-4.89,-4.89,0,*5B
1487768864.95,61079,11.13,72500.3,-1.75,-4.81,-4.81,0,*5A
1487768866.18,61080,11.13,72490.8,-1.77,-4.57,-4.53,0,*5A
1487768867.38,61081,11.13,72478.5,-1.81,-3.91,-3.79,0,*50
1487768868.62,61082,11.13,72486.8,-1.77,-3.75,-3.75,0,*5C
1487768869.84,61083,11.13,72502.5,-1.75,-3.79,-3.67,0,*50
1487768871.12,61084,11.13,72514.5,-1.73,-4.01,-4.01,0,*5E
1487768872.34,61085,11.13,72514.0,-1.73,-4.13,-4.13,0,*5F
1487768873.55,61086,11.13,72516.5,-1.75,-4.21,-4.13,0,*5B
1487768874.76,61087,11.13,72504.5,-1.75,-4.17,-4.21,0,*5E
1487768875.96,61088,11.13,72482.8,-1.75,-4.53,-4.53,0,*54
1487768877.19,61089,11.13,72492.8,-1.75,-5.23,-5.55,0,*54
1487768878.45,61090,11.13,72506.0,-1.75,-5.07,-5.11,0,*5A
1487768879.69,61091,11.13,72500.3,-1.75,-4.81,-4.69,0,*5A
1487768880.97,61092,11.13,72508.3,-1.77,-4.89,-4.77,0,*5C
1487768882.24,61093,11.13,72508.3,-1.77,-4.89,-4.81,0,*54
1487768883.46,61094,11.13,72508.0,-1.77,-4.53,-4.45,0,*5C
1487768884.66,61095,11.13,72486.8,-1.81,-4.29,-4.25,0,*5F
1487768885.86,61096,11.13,72500.0,-1.81,-4.25,-4.21,0,*54
1487768887.06,61097,11.13,72492.5,-1.81,-4.37,-4.25,0,*52
1487768888.25,61098,11.13,72504.0,-1.81,-4.17,-4.13,0,*5A
1487768889.47,61099,11.13,72510.8,-1.77,-4.45,-4.41,0,*52
1487768890.74,61100,11.13,72498.8,-1.77,-4.77,-4.69,0,*58
1487768891.94,61101,11.13,72468.3,-1.81,-4.65,-4.61,0,*5B
1487768893.16,61102,11.13,72474.8,-1.81,-5.27,-5.39,0,*53
1487768894.38,61103,11.13,72480.5,-1.81,-5.93,-6.05,0,*51
1487768895.65,61104,11.13,72464.0,-1.83,-5.89,-5.89,0,*58
1487768896.9,61105,11.13,72474.0,-1.85,-5.69,-5.73,0,*54
1487768898.08,61106,11.13,72494.8,-1.85,-5.43,-5.43,0,*5C
1487768899.36,61107,11.13,72454.3,-1.87,-5.03,-4.89,0,*5C
1487768900.62,61108,11.13,72442.3,-1.87,-4.93,-4.89,0,*5B
1487768901.84,61109,11.13,72480.0,-1.89,-4.73,-4.61,0,*5C
1487768903.03,61110,11.13,72476.3,-1.89,-4.45,-4.37,0,*52
1487768904.25,61111,11.13,72502.5,-1.87,-4.29,-4.25,0,*54
1487768905.48,61112,11.13,72498.5,-1.89,-4.77,-4.77,0,*55